| time (UTC) | temp C | wind direction | speed KPH | gust KPH | rain 1hr cm | rain 24hr cm | rain mn cm | humidity % | barometer mb |
| 20260904205822 | 37 | 172 | 8.0 | 19.3 | 0.00 | 0.00 | 0.00 | 35 | 1014.3 |
| 20260904204821 | 37 | 152 | 14.5 | 29.0 | 0.00 | 0.00 | 0.00 | 35 | 1014.4 |
| 20260904203823 | 37 | 261 | 9.7 | 24.1 | 0.00 | 0.00 | 0.00 | 34 | 1014.4 |
| 20260904201821 | 36 | 262 | 11.3 | 22.5 | 0.00 | 0.00 | 0.00 | 34 | 1014.7 |
| 20260904200824 | 36 | 155 | 4.8 | 12.9 | 0.00 | 0.00 | 0.00 | 37 | 1014.7 |
| 20260904195822 | 36 | 213 | 11.3 | 20.9 | 0.00 | 0.00 | 0.00 | 37 | 1014.9 |
| 20260904194823 | 37 | 173 | 9.7 | 22.5 | 0.00 | 0.00 | 0.00 | 36 | 1014.9 |
| 20260904193824 | 36 | 85 | 6.4 | 17.7 | 0.00 | 0.00 | 0.00 | 37 | 1014.8 |
| 20260904192823 | 36 | 180 | 6.4 | 16.1 | 0.00 | 0.00 | 0.00 | 37 | 1014.9 |
| 20260904191822 | 36 | 182 | 9.7 | 24.1 | 0.00 | 0.00 | 0.00 | 37 | 1015.2 |
| 20260904190823 | 36 | 117 | 9.7 | 24.1 | 0.00 | 0.00 | 0.00 | 37 | 1015.1 |
| 20260904185822 | 36 | 140 | 8.0 | 24.1 | 0.00 | 0.00 | 0.00 | 38 | 1015.3 |
| 20260904184822 | 36 | 237 | 9.7 | 19.3 | 0.00 | 0.00 | 0.00 | 38 | 1015.5 |
| 20260904183822 | 36 | 233 | 8.0 | 19.3 | 0.00 | 0.00 | 0.00 | 40 | 1015.5 |
| 20260904182823 | 35 | 169 | 8.0 | 25.7 | 0.00 | 0.00 | 0.00 | 40 | 1015.6 |
| 20260904181823 | 36 | 159 | 9.7 | 27.4 | 0.00 | 0.00 | 0.00 | 39 | 1015.9 |
| 20260904180820 | 35 | 232 | 12.9 | 24.1 | 0.00 | 0.00 | 0.00 | 41 | 1016.1 |
| 20260904175820 | 35 | 161 | 9.7 | 22.5 | 0.00 | 0.00 | 0.00 | 43 | 1016.2 |
| 20260904174820 | 35 | 187 | 11.3 | 22.5 | 0.00 | 0.00 | 0.00 | 43 | 1016.4 |
| 20260904172820 | 34 | 180 | 8.0 | 16.1 | 0.00 | 0.00 | 0.00 | 45 | 1016.6 |
| 20260904171818 | 34 | 165 | 9.7 | 22.5 | 0.00 | 0.00 | 0.00 | 44 | 1016.9 |
| 20260904171301 | 34 | 166 | 9.7 | 20.9 | 0.00 | 0.00 | 0.00 | 46 | 1016.8 |
| 20260904165817 | 33 | 209 | 8.0 | 19.3 | 0.00 | 0.00 | 0.00 | 48 | 1016.8 |
| 20260904164817 | 33 | 161 | 12.9 | 20.9 | 0.00 | 0.00 | 0.00 | 46 | 1016.9 |
| 20260904163816 | 33 | 174 | 11.3 | 27.4 | 0.00 | 0.00 | 0.00 | 47 | 1016.9 |
| 20260904162815 | 33 | 130 | 9.7 | 20.9 | 0.00 | 0.00 | 0.00 | 49 | 1016.9 |
| 20260904161816 | 33 | 220 | 11.3 | 19.3 | 0.00 | 0.00 | 0.00 | 52 | 1017.1 |
| 20260904160811 | 32 | 188 | 12.9 | 25.7 | 0.00 | 0.00 | 0.00 | 54 | 1017.0 |
| 20260904155812 | 32 | 163 | 11.3 | 19.3 | 0.00 | 0.00 | 0.00 | 54 | 1017.1 |
| 20260904154809 | 32 | 180 | 11.3 | 22.5 | 0.00 | 0.00 | 0.00 | 55 | 1017.1 |
| 20260904152809 | 31 | 203 | 11.3 | 22.5 | 0.00 | 0.00 | 0.00 | 58 | 1017.1 |
| 20260904151809 | 30 | 193 | 9.7 | 19.3 | 0.00 | 0.00 | 0.00 | 59 | 1017.1 |
| 20260904150809 | 30 | 168 | 4.8 | 14.5 | 0.00 | 0.00 | 0.00 | 61 | 1017.0 |
| 20260904145811 | 30 | 178 | 4.8 | 11.3 | 0.00 | 0.00 | 0.00 | 64 | 1017.2 |
| 20260904145306 | 29 | 150 | 4.8 | 12.9 | 0.00 | 0.00 | 0.00 | 66 | 1017.0 |
| 20260904143809 | 28 | 190 | 3.2 | 9.7 | 0.00 | 0.00 | 0.00 | 68 | 1017.1 |
| 20260904142807 | 28 | 55 | 1.6 | 8.0 | 0.00 | 0.00 | 0.00 | 69 | 1017.1 |
| 20260904141808 | 27 | 146 | 1.6 | 4.8 | 0.00 | 0.00 | 0.00 | 70 | 1017.1 |
| 20260904140805 | 27 | 196 | 3.2 | 8.0 | 0.00 | 0.00 | 0.00 | 71 | 1017.1 |
| 20260904135802 | 27 | 128 | 1.6 | 6.4 | 0.00 | 0.00 | 0.00 | 71 | 1017.2 |
| 20260904134803 | 26 | 109 | 1.6 | 3.2 | 0.00 | 0.00 | 0.00 | 73 | 1017.1 |
| 20260904133805 | 26 | 132 | 0.0 | 0.0 | 0.00 | 0.00 | 0.00 | 74 | 1017.1 |
| 20260904132802 | 25 | 67 | 0.0 | 0.0 | 0.00 | 0.00 | 0.00 | 77 | 1017.0 |
| 20260904131803 | 25 | 84 | 0.0 | 0.0 | 0.00 | 0.00 | 0.00 | 80 | 1017.0 |
| 20260904131250 | 24 | 142 | 0.0 | 0.0 | 0.00 | 0.00 | 0.00 | 81 | 1016.9 |
| 20260904130243 | 24 | 142 | 0.0 | 1.6 | 0.00 | 0.00 | 0.00 | 81 | 1016.8 |
| 20260904125247 | 23 | 47 | 0.0 | 3.2 | 0.00 | 0.00 | 0.00 | 82 | 1016.7 |
| 20260904123802 | 23 | 57 | 0.0 | 1.6 | 0.00 | 0.00 | 0.00 | 83 | 1016.7 |
| 20260904123240 | 22 | 36 | 0.0 | 0.0 | 0.00 | 0.00 | 0.00 | 84 | 1016.6 |
| 20260904121803 | 22 | 36 | 0.0 | 1.6 | 0.00 | 0.00 | 0.00 | 85 | 1016.5 |
| 20260904120802 | 22 | 0 | 0.0 | 0.0 | 0.00 | 0.00 | 0.00 | 86 | 1016.4 |
| 20260904115759 | 22 | 0 | 0.0 | 0.0 | 0.00 | 0.00 | 0.00 | 85 | 1016.4 |
| 20260904114800 | 22 | 0 | 0.0 | 0.0 | 0.00 | 0.00 | 0.00 | 85 | 1016.4 |
| 20260904113758 | 22 | 0 | 0.0 | 0.0 | 0.00 | 0.00 | 0.00 | 84 | 1016.3 |
| 20260904113233 | 22 | 0 | 0.0 | 0.0 | 0.00 | 0.00 | 0.00 | 84 | 1016.3 |
| 20260904111759 | 22 | 0 | 1.6 | 4.8 | 0.00 | 0.00 | 0.00 | 82 | 1016.3 |
| 20260904110759 | 23 | 340 | 1.6 | 6.4 | 0.00 | 0.00 | 0.00 | 80 | 1016.3 |
| 20260904105759 | 23 | 133 | 0.0 | 0.0 | 0.00 | 0.00 | 0.00 | 78 | 1016.2 |
| 20260904104800 | 24 | 133 | 0.0 | 0.0 | 0.00 | 0.00 | 0.00 | 76 | 1016.1 |
| 20260904102756 | 24 | 133 | 1.6 | 3.2 | 0.00 | 0.00 | 0.00 | 76 | 1016.0 |
| 20260904101759 | 24 | 159 | 1.6 | 3.2 | 0.00 | 0.00 | 0.00 | 76 | 1015.9 |
| 20260904100757 | 24 | 159 | 3.2 | 4.8 | 0.00 | 0.00 | 0.00 | 76 | 1015.7 |
| 20260904095756 | 24 | 132 | 1.6 | 4.8 | 0.00 | 0.00 | 0.00 | 76 | 1015.7 |
| 20260904094758 | 24 | 130 | 1.6 | 4.8 | 0.00 | 0.00 | 0.00 | 76 | 1015.6 |
| 20260904093800 | 24 | 123 | 3.2 | 4.8 | 0.00 | 0.00 | 0.00 | 77 | 1015.6 |
| 20260904092758 | 24 | 133 | 4.8 | 6.4 | 0.00 | 0.00 | 0.00 | 77 | 1015.5 |
| 20260904091756 | 24 | 123 | 3.2 | 6.4 | 0.00 | 0.00 | 0.00 | 76 | 1015.4 |
| 20260904090758 | 24 | 130 | 1.6 | 4.8 | 0.00 | 0.00 | 0.00 | 76 | 1015.5 |
| 20260904085757 | 24 | 134 | 3.2 | 4.8 | 0.00 | 0.00 | 0.00 | 76 | 1015.5 |
| 20260904084756 | 23 | 134 | 1.6 | 4.8 | 0.00 | 0.00 | 0.00 | 78 | 1015.5 |
| 20260904084233 | 24 | 125 | 0.0 | 1.6 | 0.00 | 0.00 | 0.00 | 75 | 1015.5 |
| 20260904083233 | 25 | 125 | 0.0 | 0.0 | 0.00 | 0.00 | 0.00 | 73 | 1015.4 |
| 20260904081754 | 25 | 124 | 0.0 | 0.0 | 0.00 | 0.00 | 0.00 | 73 | 1015.5 |
| 20260904080754 | 25 | 124 | 0.0 | 3.2 | 0.00 | 0.00 | 0.00 | 74 | 1015.5 |
| 20260904075750 | 25 | 117 | 1.6 | 4.8 | 0.00 | 0.00 | 0.00 | 74 | 1015.3 |
| 20260904074745 | 25 | 120 | 0.0 | 3.2 | 0.00 | 0.00 | 0.00 | 74 | 1015.4 |
| 20260904073746 | 25 | 121 | 1.6 | 3.2 | 0.00 | 0.00 | 0.00 | 74 | 1015.3 |
| 20260904072746 | 24 | 125 | 0.0 | 1.6 | 0.00 | 0.00 | 0.00 | 75 | 1015.3 |
| 20260904071746 | 24 | 125 | 0.0 | 0.0 | 0.00 | 0.00 | 0.00 | 75 | 1015.5 |
| 20260904070747 | 24 | 125 | 0.0 | 0.0 | 0.00 | 0.00 | 0.00 | 75 | 1015.5 |
| 20260904065745 | 25 | 125 | 0.0 | 0.0 | 0.00 | 0.00 | 0.00 | 74 | 1015.5 |
| 20260904064743 | 25 | 125 | 0.0 | 0.0 | 0.00 | 0.00 | 0.00 | 73 | 1015.5 |
| 20260904064222 | 25 | 125 | 0.0 | 0.0 | 0.00 | 0.00 | 0.00 | 72 | 1015.5 |
| 20260904062736 | 25 | 125 | 0.0 | 0.0 | 0.00 | 0.00 | 0.00 | 71 | 1015.4 |
| 20260904061736 | 26 | 125 | 0.0 | 0.0 | 0.00 | 0.00 | 0.00 | 69 | 1015.5 |
| 20260904060735 | 26 | 125 | 0.0 | 0.0 | 0.00 | 0.00 | 0.00 | 68 | 1015.4 |
| 20260904055736 | 26 | 125 | 1.6 | 3.2 | 0.00 | 0.00 | 0.00 | 68 | 1015.3 |
| 20260904054736 | 26 | 115 | 1.6 | 4.8 | 0.00 | 0.00 | 0.00 | 69 | 1015.2 |
| 20260904053735 | 26 | 123 | 1.6 | 4.8 | 0.00 | 0.00 | 0.00 | 70 | 1015.2 |
| 20260904052735 | 26 | 108 | 0.0 | 1.6 | 0.00 | 0.00 | 0.00 | 70 | 1015.2 |
| 20260904051732 | 26 | 108 | 0.0 | 0.0 | 0.00 | 0.00 | 0.00 | 69 | 1015.2 |
| 20260904050732 | 26 | 108 | 0.0 | 0.0 | 0.00 | 0.00 | 0.00 | 68 | 1015.1 |
| 20260904045730 | 27 | 108 | 0.0 | 0.0 | 0.00 | 0.00 | 0.00 | 67 | 1015.2 |
| 20260904044726 | 27 | 108 | 0.0 | 0.0 | 0.00 | 0.00 | 0.00 | 64 | 1015.3 |
| 20260904044202 | 27 | 108 | 0.0 | 1.6 | 0.00 | 0.00 | 0.00 | 63 | 1015.2 |
| 20260904042723 | 27 | 108 | 0.0 | 4.8 | 0.00 | 0.00 | 0.00 | 62 | 1015.2 |
| 20260904040723 | 28 | 107 | 1.6 | 4.8 | 0.00 | 0.00 | 0.00 | 62 | 1015.1 |
| 20260904035723 | 27 | 92 | 0.0 | 4.8 | 0.00 | 0.00 | 0.00 | 63 | 1014.9 |
| 20260904034716 | 28 | 113 | 1.6 | 3.2 | 0.00 | 0.00 | 0.00 | 61 | 1014.8 |
| 20260904033715 | 28 | 123 | 1.6 | 3.2 | 0.00 | 0.00 | 0.00 | 59 | 1014.9 |
| 20260904033155 | 29 | 121 | 3.2 | 4.8 | 0.00 | 0.00 | 0.00 | 56 | 1015.1 |
| 20260904031712 | 30 | 128 | 3.2 | 4.8 | 0.00 | 0.00 | 0.00 | 56 | 1015.0 |
| 20260904030710 | 30 | 134 | 4.8 | 6.4 | 0.00 | 0.00 | 0.00 | 55 | 1014.9 |
| 20260904025712 | 30 | 137 | 4.8 | 8.0 | 0.00 | 0.00 | 0.00 | 54 | 1014.9 |
| 20260904024711 | 30 | 138 | 4.8 | 6.4 | 0.00 | 0.00 | 0.00 | 54 | 1014.8 |
| 20260904023711 | 30 | 134 | 4.8 | 9.7 | 0.00 | 0.00 | 0.00 | 53 | 1014.7 |
| 20260904022712 | 30 | 136 | 4.8 | 6.4 | 0.00 | 0.00 | 0.00 | 53 | 1014.5 |
| 20260904021705 | 31 | 142 | 4.8 | 8.0 | 0.00 | 0.00 | 0.00 | 52 | 1014.5 |
| 20260904020705 | 31 | 152 | 4.8 | 9.7 | 0.00 | 0.00 | 0.00 | 52 | 1014.2 |
| 20260904015704 | 31 | 142 | 4.8 | 6.4 | 0.00 | 0.00 | 0.00 | 51 | 1014.2 |
| 20260904014704 | 31 | 136 | 4.8 | 6.4 | 0.00 | 0.00 | 0.00 | 50 | 1014.0 |
| 20260904014153 | 31 | 136 | 3.2 | 6.4 | 0.00 | 0.00 | 0.00 | 50 | 1013.9 |
| 20260904012704 | 31 | 158 | 4.8 | 8.0 | 0.00 | 0.00 | 0.00 | 49 | 1013.6 |
| 20260904011706 | 32 | 158 | 4.8 | 8.0 | 0.00 | 0.00 | 0.00 | 48 | 1013.5 |
| 20260904010705 | 32 | 137 | 4.8 | 11.3 | 0.00 | 0.00 | 0.00 | 47 | 1013.4 |
| 20260904005705 | 32 | 123 | 6.4 | 9.7 | 0.00 | 0.00 | 0.00 | 47 | 1013.4 |
| 20260904004703 | 32 | 128 | 6.4 | 11.3 | 0.00 | 0.00 | 0.00 | 46 | 1013.4 |
| 20260904004140 | 33 | 138 | 8.0 | 12.9 | 0.00 | 0.00 | 0.00 | 46 | 1013.4 |
| 20260904002701 | 33 | 129 | 8.0 | 14.5 | 0.00 | 0.00 | 0.00 | 45 | 1013.3 |
| 20260904002137 | 33 | 155 | 11.3 | 19.3 | 0.00 | 0.00 | 0.00 | 44 | 1013.4 |
| 20260904000703 | 33 | 166 | 12.9 | 19.3 | 0.00 | 0.00 | 0.00 | 44 | 1013.4 |
| 20260903235703 | 34 | 176 | 9.7 | 14.5 | 0.00 | 0.00 | 0.00 | 44 | 1013.4 |
| 20260903234702 | 34 | 142 | 11.3 | 17.7 | 0.00 | 0.00 | 0.00 | 43 | 1013.3 |
| 20260903233703 | 34 | 130 | 11.3 | 24.1 | 0.00 | 0.00 | 0.00 | 42 | 1013.3 |
| 20260903232704 | 35 | 152 | 12.9 | 25.7 | 0.00 | 0.00 | 0.00 | 42 | 1013.2 |
| 20260903231701 | 34 | 189 | 14.5 | 25.7 | 0.00 | 0.00 | 0.00 | 41 | 1013.1 |
| 20260903230702 | 35 | 166 | 12.9 | 24.1 | 0.00 | 0.00 | 0.00 | 42 | 1013.1 |
| 20260903230142 | 35 | 155 | 14.5 | 25.7 | 0.00 | 0.00 | 0.00 | 41 | 1013.2 |
| 20260903224702 | 35 | 184 | 12.9 | 20.9 | 0.00 | 0.00 | 0.00 | 41 | 1013.3 |
| 20260903223703 | 35 | 157 | 11.3 | 22.5 | 0.00 | 0.00 | 0.00 | 40 | 1013.1 |
| 20260903222701 | 35 | 168 | 16.1 | 30.6 | 0.00 | 0.00 | 0.00 | 41 | 1013.2 |
| 20260903221703 | 35 | 161 | 11.3 | 16.1 | 0.00 | 0.00 | 0.00 | 40 | 1013.2 |
| 20260903220703 | 36 | 161 | 11.3 | 24.1 | 0.00 | 0.00 | 0.00 | 40 | 1013.3 |
| 20260903215702 | 36 | 153 | 14.5 | 32.2 | 0.00 | 0.00 | 0.00 | 40 | 1013.4 |
| 20260903214701 | 35 | 168 | 14.5 | 22.5 | 0.00 | 0.00 | 0.00 | 41 | 1013.3 |
| 20260903214142 | 35 | 174 | 14.5 | 29.0 | 0.00 | 0.00 | 0.00 | 42 | 1013.6 |
| 20260903212701 | 36 | 171 | 14.5 | 24.1 | 0.00 | 0.00 | 0.00 | 41 | 1013.7 |
| 20260903211702 | 36 | 187 | 14.5 | 22.5 | 0.00 | 0.00 | 0.00 | 41 | 1013.7 |
| 20260903211134 | 35 | 161 | 12.9 | 27.4 | 0.00 | 0.00 | 0.00 | 41 | 1013.9 |